Time,TemperatureF,DewpointF,PressureIn,WindDirection,WindDirectionDegrees,WindSpeedMPH,WindSpeedGustMPH,Humidity,HourlyPrecipIn,Conditions,Clouds,dailyrainin,SoftwareType,DateUTC
2013-01-15 00:00:00,17.3,13.0,30.36,West,268,0.0,1.0,83,0.00,,,0.00,Wunderground v.1.15,2013-01-15 05:00:00,
2013-01-15 00:05:00,17.5,13.2,30.36,West,268,0.0,1.0,83,0.00,,,0.00,Wunderground v.1.15,2013-01-15 05:05:00,
2013-01-15 00:10:00,17.7,13.4,30.36,West,268,0.0,0.0,83,0.00,,,0.00,Wunderground v.1.15,2013-01-15 05:10:00,
2013-01-15 00:15:00,18.0,13.7,30.35,South,186,0.0,2.0,83,0.00,,,0.00,Wunderground v.1.15,2013-01-15 05:15:00,
2013-01-15 00:20:00,18.3,14.0,30.35,South,188,0.0,0.0,83,0.00,,,0.00,Wunderground v.1.15,2013-01-15 05:20:00,
2013-01-15 00:25:00,18.8,14.5,30.35,South,188,0.0,0.0,83,0.00,,,0.00,Wunderground v.1.15,2013-01-15 05:25:00,
2013-01-15 00:35:00,19.2,14.6,30.35,South,188,0.0,0.0,82,0.00,,,0.00,Wunderground v.1.15,2013-01-15 05:35:00,
2013-01-15 00:40:00,19.4,14.8,30.35,South,188,0.0,0.0,82,0.00,,,0.00,Wunderground v.1.15,2013-01-15 05:40:00,
2013-01-15 00:45:00,19.5,14.9,30.35,South,188,0.0,0.0,82,0.00,,,0.00,Wunderground v.1.15,2013-01-15 05:45:00,
2013-01-15 00:55:00,20.2,15.3,30.35,South,188,0.0,0.0,81,0.00,,,0.00,Wunderground v.1.15,2013-01-15 05:55:00,
2013-01-15 01:00:00,20.5,15.3,30.35,South,188,0.0,0.0,80,0.00,,,0.00,Wunderground v.1.15,2013-01-15 06:00:00,
2013-01-15 01:05:00,20.8,15.6,30.35,SW,216,0.0,0.0,80,0.00,,,0.00,Wunderground v.1.15,2013-01-15 06:05:00,
2013-01-15 01:10:00,21.0,15.8,30.35,SW,216,0.0,0.0,80,0.00,,,0.00,Wunderground v.1.15,2013-01-15 06:10:00,
2013-01-15 01:15:00,21.1,15.6,30.35,SW,216,0.0,0.0,79,0.00,,,0.00,Wunderground v.1.15,2013-01-15 06:15:00,
2013-01-15 01:20:00,21.3,15.8,30.35,SW,216,1.0,1.0,79,0.00,,,0.00,Wunderground v.1.15,2013-01-15 06:20:00,
2013-01-15 01:30:00,21.6,15.8,30.35,SW,216,0.0,0.0,78,0.00,,,0.00,Wunderground v.1.15,2013-01-15 06:30:00,
2013-01-15 01:35:00,21.8,16.0,30.35,SW,216,0.0,0.0,78,0.00,,,0.00,Wunderground v.1.15,2013-01-15 06:35:00,
2013-01-15 01:40:00,21.9,16.1,30.35,NW,326,0.0,1.0,78,0.00,,,0.00,Wunderground v.1.15,2013-01-15 06:40:00,
2013-01-15 01:45:00,21.9,16.1,30.36,NW,326,0.0,1.0,78,0.00,,,0.00,Wunderground v.1.15,2013-01-15 06:45:00,
2013-01-15 01:55:00,22.1,16.3,30.36,NW,326,0.0,0.0,78,0.00,,,0.00,Wunderground v.1.15,2013-01-15 06:55:00,
2013-01-15 02:00:00,22.1,16.3,30.36,NW,326,0.0,0.0,78,0.00,,,0.00,Wunderground v.1.15,2013-01-15 07:00:00,
2013-01-15 02:05:00,22.1,16.3,30.36,NW,325,0.0,0.0,78,0.00,,,0.00,Wunderground v.1.15,2013-01-15 07:05:00,
2013-01-15 02:15:00,22.1,16.0,30.36,NW,325,0.0,0.0,77,0.00,,,0.00,Wunderground v.1.15,2013-01-15 07:15:00,
2013-01-15 02:20:00,22.1,16.0,30.36,NW,325,0.0,0.0,77,0.00,,,0.00,Wunderground v.1.15,2013-01-15 07:20:00,
2013-01-15 02:30:00,21.8,15.7,30.36,NW,325,0.0,0.0,77,0.00,,,0.00,Wunderground v.1.15,2013-01-15 07:30:00,
2013-01-15 02:35:00,21.6,15.5,30.36,NW,325,0.0,0.0,77,0.00,,,0.00,Wunderground v.1.15,2013-01-15 07:35:00,
2013-01-15 02:40:00,21.3,15.5,30.36,NW,325,0.0,0.0,78,0.00,,,0.00,Wunderground v.1.15,2013-01-15 07:40:00,
2013-01-15 02:45:00,21.1,15.3,30.36,NW,325,0.0,0.0,78,0.00,,,0.00,Wunderground v.1.15,2013-01-15 07:45:00,
2013-01-15 02:55:00,20.6,14.8,30.36,NW,325,0.0,0.0,78,0.00,,,0.00,Wunderground v.1.15,2013-01-15 07:55:00,
2013-01-15 03:00:00,20.5,14.7,30.36,NW,325,0.0,0.0,78,0.00,,,0.00,Wunderground v.1.15,2013-01-15 08:00:00,
2013-01-15 03:05:00,20.5,15.0,30.36,NW,325,0.0,0.0,79,0.00,,,0.00,Wunderground v.1.15,2013-01-15 08:05:00,
2013-01-15 03:15:00,20.2,15.0,30.36,NW,325,0.0,0.0,80,0.00,,,0.00,Wunderground v.1.15,2013-01-15 08:15:00,
2013-01-15 03:20:00,20.2,15.0,30.36,NW,325,0.0,0.0,80,0.00,,,0.00,Wunderground v.1.15,2013-01-15 08:20:00,
2013-01-15 03:30:00,20.0,14.8,30.36,NW,325,0.0,0.0,80,0.00,,,0.00,Wunderground v.1.15,2013-01-15 08:30:00,
2013-01-15 03:35:00,19.9,14.7,30.36,NW,325,0.0,0.0,80,0.00,,,0.00,Wunderground v.1.15,2013-01-15 08:35:00,
2013-01-15 03:40:00,19.9,14.7,30.36,NW,325,0.0,0.0,80,0.00,,,0.00,Wunderground v.1.15,2013-01-15 08:40:00,
2013-01-15 03:50:00,19.5,14.3,30.36,NW,325,0.0,0.0,80,0.00,,,0.00,Wunderground v.1.15,2013-01-15 08:50:00,
2013-01-15 03:55:00,19.4,14.5,30.36,NW,325,0.0,0.0,81,0.00,,,0.00,Wunderground v.1.15,2013-01-15 08:55:00,
2013-01-15 04:00:00,19.2,14.3,30.36,NW,325,0.0,0.0,81,0.00,,,0.00,Wunderground v.1.15,2013-01-15 09:00:00,
2013-01-15 04:05:00,19.1,14.2,30.36,NW,325,0.0,0.0,81,0.00,,,0.00,Wunderground v.1.15,2013-01-15 09:05:00,
2013-01-15 04:15:00,18.9,14.0,30.36,NW,325,0.0,0.0,81,0.00,,,0.00,Wunderground v.1.15,2013-01-15 09:15:00,
2013-01-15 04:25:00,18.6,14.0,30.36,NW,325,0.0,0.0,82,0.00,,,0.00,Wunderground v.1.15,2013-01-15 09:25:00,
2013-01-15 04:30:00,18.6,14.0,30.36,NW,325,0.0,0.0,82,0.00,,,0.00,Wunderground v.1.15,2013-01-15 09:30:00,
2013-01-15 04:35:00,18.4,13.8,30.36,NW,325,0.0,0.0,82,0.00,,,0.00,Wunderground v.1.15,2013-01-15 09:35:00,
2013-01-15 04:40:00,18.4,13.8,30.36,NW,325,0.0,0.0,82,0.00,,,0.00,Wunderground v.1.15,2013-01-15 09:40:00,
2013-01-15 04:50:00,18.4,14.1,30.36,NW,325,0.0,0.0,83,0.00,,,0.00,Wunderground v.1.15,2013-01-15 09:50:00,
2013-01-15 04:55:00,18.4,14.1,30.36,NW,325,0.0,0.0,83,0.00,,,0.00,Wunderground v.1.15,2013-01-15 09:55:00,
2013-01-15 05:05:00,18.4,14.1,30.36,NW,325,0.0,0.0,83,0.00,,,0.00,Wunderground v.1.15,2013-01-15 10:05:00,
2013-01-15 05:15:00,18.6,14.6,30.36,NW,325,0.0,0.0,84,0.00,,,0.00,Wunderground v.1.15,2013-01-15 10:15:00,
2013-01-15 05:20:00,18.6,14.6,30.36,NW,325,0.0,0.0,84,0.00,,,0.00,Wunderground v.1.15,2013-01-15 10:20:00,
2013-01-15 05:25:00,18.6,14.6,30.36,NW,325,0.0,0.0,84,0.00,,,0.00,Wunderground v.1.15,2013-01-15 10:25:00,
2013-01-15 05:30:00,18.6,14.6,30.35,NW,325,0.0,0.0,84,0.00,,,0.00,Wunderground v.1.15,2013-01-15 10:30:00,
2013-01-15 05:40:00,18.8,14.8,30.35,NW,325,0.0,0.0,84,0.00,,,0.00,Wunderground v.1.15,2013-01-15 10:40:00,
2013-01-15 05:45:00,18.6,14.6,30.36,NW,325,0.0,0.0,84,0.00,,,0.00,Wunderground v.1.15,2013-01-15 10:45:00,
2013-01-15 05:50:00,18.6,14.6,30.36,NW,325,0.0,0.0,84,0.00,,,0.00,Wunderground v.1.15,2013-01-15 10:50:00,
2013-01-15 05:55:00,18.8,15.0,30.36,NW,325,0.0,0.0,85,0.00,,,0.00,Wunderground v.1.15,2013-01-15 10:55:00,
2013-01-15 06:05:00,19.2,15.4,30.35,NW,325,0.0,0.0,85,0.00,,,0.00,Wunderground v.1.15,2013-01-15 11:05:00,
2013-01-15 06:15:00,19.1,15.3,30.36,NW,325,0.0,0.0,85,0.00,,,0.00,Wunderground v.1.15,2013-01-15 11:15:00,
2013-01-15 06:20:00,18.9,15.1,30.36,NW,325,0.0,0.0,85,0.00,,,0.00,Wunderground v.1.15,2013-01-15 11:20:00,
2013-01-15 06:25:00,18.8,15.0,30.36,NW,325,0.0,0.0,85,0.00,,,0.00,Wunderground v.1.15,2013-01-15 11:25:00,
2013-01-15 06:30:00,18.8,15.0,30.36,NW,325,0.0,0.0,85,0.00,,,0.00,Wunderground v.1.15,2013-01-15 11:30:00,
2013-01-15 06:40:00,18.8,15.0,30.36,NW,325,0.0,0.0,85,0.00,,,0.00,Wunderground v.1.15,2013-01-15 11:40:00,
2013-01-15 06:45:00,18.8,15.0,30.36,NW,325,0.0,0.0,85,0.00,,,0.00,Wunderground v.1.15,2013-01-15 11:45:00,
2013-01-15 06:50:00,18.8,15.3,30.36,NW,325,0.0,0.0,86,0.00,,,0.00,Wunderground v.1.15,2013-01-15 11:50:00,
2013-01-15 07:00:00,19.2,15.7,30.36,NW,326,0.0,0.0,86,0.00,,,0.00,Wunderground v.1.15,2013-01-15 12:00:00,
2013-01-15 07:05:00,19.4,15.9,30.36,NW,325,0.0,0.0,86,0.00,,,0.00,Wunderground v.1.15,2013-01-15 12:05:00,
2013-01-15 07:15:00,19.4,15.9,30.36,NW,326,0.0,0.0,86,0.00,,,0.00,Wunderground v.1.15,2013-01-15 12:15:00,
2013-01-15 07:20:00,19.4,15.9,30.36,NW,325,0.0,0.0,86,0.00,,,0.00,Wunderground v.1.15,2013-01-15 12:20:00,
2013-01-15 07:25:00,19.4,15.9,30.36,NW,326,0.0,0.0,86,0.00,,,0.00,Wunderground v.1.15,2013-01-15 12:25:00,
2013-01-15 07:35:00,19.2,15.7,30.36,NW,326,0.0,0.0,86,0.00,,,0.00,Wunderground v.1.15,2013-01-15 12:35:00,
2013-01-15 07:40:00,19.2,15.7,30.36,NW,325,0.0,0.0,86,0.00,,,0.00,Wunderground v.1.15,2013-01-15 12:40:00,
2013-01-15 07:45:00,19.2,15.7,30.36,NW,325,0.0,0.0,86,0.00,,,0.00,Wunderground v.1.15,2013-01-15 12:45:00,
2013-01-15 07:50:00,19.2,15.7,30.36,NW,326,0.0,0.0,86,0.00,,,0.00,Wunderground v.1.15,2013-01-15 12:50:00,
2013-01-15 08:00:00,18.9,15.4,30.36,NW,325,0.0,0.0,86,0.00,,,0.00,Wunderground v.1.15,2013-01-15 13:00:00,
2013-01-15 08:05:00,18.6,15.1,30.36,NW,326,0.0,0.0,86,0.00,,,0.00,Wunderground v.1.15,2013-01-15 13:05:00,
2013-01-15 08:15:00,18.3,14.8,30.36,NW,325,0.0,0.0,86,0.00,,,0.00,Wunderground v.1.15,2013-01-15 13:15:00,
2013-01-15 08:20:00,18.1,14.6,30.36,NW,326,0.0,0.0,86,0.00,,,0.00,Wunderground v.1.15,2013-01-15 13:20:00,
2013-01-15 08:25:00,18.1,14.6,30.36,NW,325,0.0,0.0,86,0.00,,,0.00,Wunderground v.1.15,2013-01-15 13:25:00,
2013-01-15 08:35:00,18.0,14.5,30.37,NW,326,0.0,0.0,86,0.00,,,0.00,Wunderground v.1.15,2013-01-15 13:35:00,
2013-01-15 08:40:00,18.3,15.1,30.37,NW,325,0.0,0.0,87,0.00,,,0.00,Wunderground v.1.15,2013-01-15 13:40:00,
2013-01-15 08:45:00,18.6,15.4,30.37,NW,325,0.0,0.0,87,0.00,,,0.00,Wunderground v.1.15,2013-01-15 13:45:00,
2013-01-15 08:55:00,19.2,16.0,30.37,NW,326,0.0,0.0,87,0.00,,,0.00,Wunderground v.1.15,2013-01-15 13:55:00,
2013-01-15 09:00:00,19.5,16.3,30.38,NW,325,0.0,0.0,87,0.00,,,0.00,Wunderground v.1.15,2013-01-15 14:00:00,
2013-01-15 09:05:00,20.0,16.8,30.38,SE,140,0.0,2.0,87,0.00,,,0.00,Wunderground v.1.15,2013-01-15 14:05:00,
2013-01-15 09:15:00,20.8,17.5,30.38,SSE,147,1.0,1.0,87,0.00,,,0.00,Wunderground v.1.15,2013-01-15 14:15:00,
2013-01-15 09:20:00,21.3,18.0,30.38,SSE,147,1.0,1.0,87,0.00,,,0.00,Wunderground v.1.15,2013-01-15 14:20:00,
2013-01-15 09:30:00,21.9,18.1,30.38,SSE,164,1.0,1.0,85,0.00,,,0.00,Wunderground v.1.15,2013-01-15 14:30:00,
2013-01-15 09:35:00,22.4,18.3,30.38,SE,144,1.0,2.0,84,0.00,,,0.00,Wunderground v.1.15,2013-01-15 14:35:00,
2013-01-15 09:40:00,22.7,18.3,30.38,SSE,147,2.0,2.0,83,0.00,,,0.00,Wunderground v.1.15,2013-01-15 14:40:00,
2013-01-15 09:50:00,23.8,18.8,30.38,SE,144,2.0,2.0,81,0.00,,,0.00,Wunderground v.1.15,2013-01-15 14:50:00,
2013-01-15 09:55:00,24.4,18.8,30.38,SSE,167,1.0,2.0,79,0.00,,,0.00,Wunderground v.1.15,2013-01-15 14:55:00,
2013-01-15 10:00:00,24.8,18.6,30.37,SSE,152,1.0,6.0,77,0.00,,,0.00,Wunderground v.1.15,2013-01-15 15:00:00,
2013-01-15 10:05:00,24.8,18.0,30.37,SSE,160,2.0,6.0,75,0.00,,,0.00,Wunderground v.1.15,2013-01-15 15:05:00,
2013-01-15 10:15:00,25.4,17.9,30.38,SSE,152,2.0,2.0,73,0.00,,,0.00,Wunderground v.1.15,2013-01-15 15:15:00,
2013-01-15 10:20:00,25.6,17.2,30.38,SE,130,2.0,2.0,70,0.00,,,0.00,Wunderground v.1.15,2013-01-15 15:20:00,
2013-01-15 10:30:00,25.6,16.2,30.38,SE,127,3.0,4.0,67,0.00,,,0.00,Wunderground v.1.15,2013-01-15 15:30:00,
2013-01-15 10:35:00,25.7,16.3,30.38,SSE,147,3.0,4.0,67,0.00,,,0.00,Wunderground v.1.15,2013-01-15 15:35:00,
2013-01-15 10:40:00,26.1,16.3,30.38,South,182,2.0,2.0,66,0.00,,,0.00,Wunderground v.1.15,2013-01-15 15:40:00,
2013-01-15 10:50:00,27.0,16.4,30.38,SE,140,2.0,2.0,64,0.00,,,0.00,Wunderground v.1.15,2013-01-15 15:50:00,
2013-01-15 10:55:00,27.3,16.4,30.38,South,175,1.0,2.0,63,0.00,,,0.00,Wunderground v.1.15,2013-01-15 15:55:00,
2013-01-15 11:00:00,27.3,16.0,30.38,SSE,161,2.0,3.0,62,0.00,,,0.00,Wunderground v.1.15,2013-01-15 16:00:00,
2013-01-15 11:05:00,27.5,16.2,30.38,ESE,113,2.0,3.0,62,0.00,,,0.00,Wunderground v.1.15,2013-01-15 16:05:00,
2013-01-15 11:15:00,27.8,15.7,30.38,SW,220,2.0,3.0,60,0.00,,,0.00,Wunderground v.1.15,2013-01-15 16:15:00,
2013-01-15 11:25:00,27.9,15.4,30.38,SE,145,3.0,3.0,59,0.00,,,0.00,Wunderground v.1.15,2013-01-15 16:25:00,
2013-01-15 11:30:00,27.6,15.1,30.37,SE,133,2.0,2.0,59,0.00,,,0.00,Wunderground v.1.15,2013-01-15 16:30:00,
2013-01-15 11:35:00,27.9,15.8,30.37,South,181,3.0,3.0,60,0.00,,,0.00,Wunderground v.1.15,2013-01-15 16:35:00,
2013-01-15 11:45:00,27.5,15.0,30.37,SE,145,3.0,6.0,59,0.00,,,0.00,Wunderground v.1.15,2013-01-15 16:45:00,
2013-01-15 11:50:00,27.5,15.4,30.37,South,191,3.0,3.0,60,0.00,,,0.00,Wunderground v.1.15,2013-01-15 16:50:00,
2013-01-15 11:55:00,27.6,15.5,30.37,SW,227,4.0,4.0,60,0.00,,,0.00,Wunderground v.1.15,2013-01-15 16:55:00,
2013-01-15 12:05:00,28.8,17.0,30.36,South,188,3.0,4.0,61,0.00,,,0.00,Wunderground v.1.15,2013-01-15 17:05:00,
2013-01-15 12:15:00,29.0,15.7,30.34,SE,141,2.0,4.0,57,0.00,,,0.00,Wunderground v.1.15,2013-01-15 17:15:00,
2013-01-15 12:25:00,29.3,16.3,30.34,SSW,203,3.0,7.0,58,0.00,,,0.00,Wunderground v.1.15,2013-01-15 17:25:00,
2013-01-15 12:30:00,29.5,16.1,30.32,SSW,208,2.0,3.0,57,0.00,,,0.00,Wunderground v.1.15,2013-01-15 17:30:00,
2013-01-15 12:35:00,29.4,15.6,30.32,SE,137,2.0,3.0,56,0.00,,,0.00,Wunderground v.1.15,2013-01-15 17:35:00,
2013-01-15 12:45:00,29.0,15.7,30.31,South,178,1.0,2.0,57,0.00,,,0.00,Wunderground v.1.15,2013-01-15 17:45:00,
2013-01-15 12:50:00,29.1,15.3,30.31,SE,137,1.0,3.0,56,0.00,,,0.00,Wunderground v.1.15,2013-01-15 17:50:00,
2013-01-15 12:55:00,29.3,15.5,30.31,SSW,209,2.0,3.0,56,0.00,,,0.00,Wunderground v.1.15,2013-01-15 17:55:00,
2013-01-15 13:00:00,29.5,15.3,30.30,SSW,206,2.0,2.0,55,0.00,,,0.00,Wunderground v.1.15,2013-01-15 18:00:00,
2013-01-15 13:05:00,29.7,15.5,30.30,SSW,209,2.0,2.0,55,0.00,,,0.00,Wunderground v.1.15,2013-01-15 18:05:00,
2013-01-15 13:15:00,29.5,15.3,30.31,SW,234,2.0,4.0,55,0.00,,,0.00,Wunderground v.1.15,2013-01-15 18:15:00,
2013-01-15 13:25:00,30.3,15.6,30.31,SW,224,3.0,5.0,54,0.00,,,0.00,Wunderground v.1.15,2013-01-15 18:25:00,
2013-01-15 13:30:00,30.7,16.0,30.29,SW,224,2.0,2.0,54,0.00,,,0.00,Wunderground v.1.15,2013-01-15 18:30:00,
2013-01-15 13:35:00,30.9,16.2,30.29,SSW,213,2.0,5.0,54,0.00,,,0.00,Wunderground v.1.15,2013-01-15 18:35:00,
2013-01-15 13:45:00,30.6,15.5,30.30,SSW,210,3.0,4.0,53,0.00,,,0.00,Wunderground v.1.15,2013-01-15 18:45:00,
2013-01-15 13:50:00,30.4,15.7,30.30,SW,217,3.0,3.0,54,0.00,,,0.00,Wunderground v.1.15,2013-01-15 18:50:00,
2013-01-15 13:55:00,30.1,15.4,30.30,WSW,246,5.0,5.0,54,0.00,,,0.00,Wunderground v.1.15,2013-01-15 18:55:00,
2013-01-15 14:00:00,30.6,16.3,30.30,SSW,212,5.0,5.0,55,0.00,,,0.00,Wunderground v.1.15,2013-01-15 19:00:00,
2013-01-15 14:05:00,30.7,16.0,30.30,SW,219,3.0,5.0,54,0.00,,,0.00,Wunderground v.1.15,2013-01-15 19:05:00,
2013-01-15 14:15:00,30.1,15.4,30.29,WSW,257,4.0,4.0,54,0.00,,,0.00,Wunderground v.1.15,2013-01-15 19:15:00,
2013-01-15 14:25:00,30.0,15.3,30.29,WSW,241,4.0,6.0,54,0.00,,,0.00,Wunderground v.1.15,2013-01-15 19:25:00,
2013-01-15 14:30:00,29.7,15.5,30.27,West,264,3.0,3.0,55,0.00,,,0.00,Wunderground v.1.15,2013-01-15 19:30:00,
2013-01-15 14:35:00,29.8,16.4,30.27,West,268,2.0,3.0,57,0.00,,,0.00,Wunderground v.1.15,2013-01-15 19:35:00,
2013-01-15 14:45:00,30.1,15.9,30.27,SW,216,2.0,5.0,55,0.00,,,0.00,Wunderground v.1.15,2013-01-15 19:45:00,
2013-01-15 14:50:00,30.0,15.8,30.27,West,265,2.0,2.0,55,0.00,,,0.00,Wunderground v.1.15,2013-01-15 19:50:00,
2013-01-15 14:55:00,30.0,16.2,30.27,West,275,1.0,2.0,56,0.00,,,0.00,Wunderground v.1.15,2013-01-15 19:55:00,
2013-01-15 15:05:00,30.0,16.2,30.26,West,275,0.0,2.0,56,0.00,,,0.00,Wunderground v.1.15,2013-01-15 20:05:00,
2013-01-15 15:15:00,29.8,16.0,30.27,NW,318,1.0,2.0,56,0.00,,,0.00,Wunderground v.1.15,2013-01-15 20:15:00,
2013-01-15 15:25:00,29.8,16.0,30.27,WNW,291,2.0,4.0,56,0.00,,,0.00,Wunderground v.1.15,2013-01-15 20:25:00,
2013-01-15 15:30:00,29.8,16.0,30.26,WNW,291,1.0,1.0,56,0.00,,,0.00,Wunderground v.1.15,2013-01-15 20:30:00,
2013-01-15 15:40:00,30.1,16.3,30.26,SSW,202,1.0,2.0,56,0.00,,,0.00,Wunderground v.1.15,2013-01-15 20:40:00,
2013-01-15 15:45:00,30.4,16.6,30.26,WSW,246,2.0,6.0,56,0.00,,,0.00,Wunderground v.1.15,2013-01-15 20:45:00,
2013-01-15 15:50:00,30.3,15.6,30.26,West,261,4.0,4.0,54,0.00,,,0.00,Wunderground v.1.15,2013-01-15 20:50:00,
2013-01-15 15:55:00,30.3,15.6,30.26,SW,216,4.0,4.0,54,0.00,,,0.00,Wunderground v.1.15,2013-01-15 20:55:00,
2013-01-15 16:05:00,29.8,15.6,30.26,West,280,2.0,2.0,55,0.00,,,0.00,Wunderground v.1.15,2013-01-15 21:05:00,
2013-01-15 16:15:00,29.8,15.6,30.26,SW,223,2.0,3.0,55,0.00,,,0.00,Wunderground v.1.15,2013-01-15 21:15:00,
2013-01-15 16:20:00,29.7,15.5,30.26,SW,224,1.0,1.0,55,0.00,,,0.00,Wunderground v.1.15,2013-01-15 21:20:00,
2013-01-15 16:25:00,29.8,15.6,30.26,West,265,1.0,1.0,55,0.00,,,0.00,Wunderground v.1.15,2013-01-15 21:25:00,
2013-01-15 16:30:00,29.7,15.5,30.25,West,264,1.0,1.0,55,0.00,,,0.00,Wunderground v.1.15,2013-01-15 21:30:00,
2013-01-15 16:40:00,29.7,15.5,30.25,West,263,1.0,2.0,55,0.00,,,0.00,Wunderground v.1.15,2013-01-15 21:40:00,
2013-01-15 16:45:00,29.5,15.3,30.24,West,270,1.0,2.0,55,0.00,,,0.00,Wunderground v.1.15,2013-01-15 21:45:00,
2013-01-15 16:50:00,29.4,15.6,30.24,West,270,2.0,2.0,56,0.00,,,0.00,Wunderground v.1.15,2013-01-15 21:50:00,
2013-01-15 17:00:00,29.4,15.6,30.25,SW,219,2.0,2.0,56,0.00,,,0.00,Wunderground v.1.15,2013-01-15 22:00:00,
2013-01-15 17:05:00,29.3,15.5,30.25,SSW,213,1.0,2.0,56,0.00,,,0.00,Wunderground v.1.15,2013-01-15 22:05:00,
2013-01-15 17:15:00,29.1,15.3,30.24,SW,217,1.0,3.0,56,0.00,,,0.00,Wunderground v.1.15,2013-01-15 22:15:00,
2013-01-15 17:20:00,29.1,15.7,30.24,SW,217,1.0,1.0,57,0.00,,,0.00,Wunderground v.1.15,2013-01-15 22:20:00,
2013-01-15 17:25:00,29.1,15.7,30.24,West,272,0.0,3.0,57,0.00,,,0.00,Wunderground v.1.15,2013-01-15 22:25:00,
2013-01-15 17:35:00,29.0,16.1,30.24,West,272,1.0,1.0,58,0.00,,,0.00,Wunderground v.1.15,2013-01-15 22:35:00,
2013-01-15 17:40:00,28.8,15.9,30.24,West,272,0.0,0.0,58,0.00,,,0.00,Wunderground v.1.15,2013-01-15 22:40:00,
2013-01-15 17:45:00,28.7,16.2,30.24,West,272,0.0,0.0,59,0.00,,,0.00,Wunderground v.1.15,2013-01-15 22:45:00,
2013-01-15 17:50:00,28.5,16.0,30.24,West,272,0.0,0.0,59,0.00,,,0.00,Wunderground v.1.15,2013-01-15 22:50:00,
2013-01-15 18:00:00,28.2,16.1,30.24,West,272,0.0,0.0,60,0.00,,,0.00,Wunderground v.1.15,2013-01-15 23:00:00,
2013-01-15 18:05:00,27.9,16.2,30.24,West,272,0.0,0.0,61,0.00,,,0.00,Wunderground v.1.15,2013-01-15 23:05:00,
2013-01-15 18:15:00,27.6,15.9,30.24,West,272,0.0,0.0,61,0.00,,,0.00,Wunderground v.1.15,2013-01-15 23:15:00,
2013-01-15 18:20:00,27.6,15.9,30.24,West,272,0.0,0.0,61,0.00,,,0.00,Wunderground v.1.15,2013-01-15 23:20:00,
2013-01-15 18:30:00,27.3,16.4,30.24,West,272,0.0,0.0,63,0.00,,,0.00,Wunderground v.1.15,2013-01-15 23:30:00,
2013-01-15 18:35:00,27.2,16.3,30.24,West,272,0.0,0.0,63,0.00,,,0.00,Wunderground v.1.15,2013-01-15 23:35:00,
2013-01-15 18:40:00,27.0,16.1,30.24,West,272,0.0,1.0,63,0.00,,,0.00,Wunderground v.1.15,2013-01-15 23:40:00,
2013-01-15 18:50:00,26.9,16.3,30.24,West,272,0.0,0.0,64,0.00,,,0.00,Wunderground v.1.15,2013-01-15 23:50:00,
2013-01-15 18:55:00,26.7,16.5,30.24,West,272,0.0,0.0,65,0.00,,,0.00,Wunderground v.1.15,2013-01-15 23:55:00,
2013-01-15 19:00:00,26.6,16.4,30.23,West,272,0.0,0.0,65,0.00,,,0.00,Wunderground v.1.15,2013-01-16 00:00:00,
2013-01-15 19:05:00,26.4,16.6,30.23,West,272,0.0,0.0,66,0.00,,,0.00,Wunderground v.1.15,2013-01-16 00:05:00,
2013-01-15 19:15:00,26.3,16.5,30.23,West,272,1.0,1.0,66,0.00,,,0.00,Wunderground v.1.15,2013-01-16 00:15:00,
2013-01-15 19:25:00,26.1,16.6,30.23,West,272,1.0,2.0,67,0.00,,,0.00,Wunderground v.1.15,2013-01-16 00:25:00,
2013-01-15 19:30:00,26.0,16.5,30.23,West,272,1.0,1.0,67,0.00,,,0.00,Wunderground v.1.15,2013-01-16 00:30:00,
2013-01-15 19:35:00,26.0,16.5,30.23,West,272,1.0,1.0,67,0.00,,,0.00,Wunderground v.1.15,2013-01-16 00:35:00,
2013-01-15 19:40:00,26.0,16.5,30.23,West,271,1.0,1.0,67,0.00,,,0.00,Wunderground v.1.15,2013-01-16 00:40:00,
2013-01-15 19:50:00,25.8,16.3,30.22,West,271,0.0,0.0,67,0.00,,,0.00,Wunderground v.1.15,2013-01-16 00:50:00,
2013-01-15 19:55:00,25.8,16.3,30.22,West,271,0.0,0.0,67,0.00,,,0.00,Wunderground v.1.15,2013-01-16 00:55:00,
2013-01-15 20:00:00,25.6,16.5,30.22,West,271,0.0,0.0,68,0.00,,,0.00,Wunderground v.1.15,2013-01-16 01:00:00,
2013-01-15 20:05:00,25.4,16.3,30.22,West,271,0.0,0.0,68,0.00,,,0.00,Wunderground v.1.15,2013-01-16 01:05:00,
2013-01-15 20:15:00,24.8,16.1,30.20,West,271,0.0,0.0,69,0.00,,,0.00,Wunderground v.1.15,2013-01-16 01:15:00,
2013-01-15 20:25:00,24.5,16.1,30.20,West,271,0.0,0.0,70,0.00,,,0.00,Wunderground v.1.15,2013-01-16 01:25:00,
2013-01-15 20:30:00,24.7,17.0,30.20,West,271,0.0,0.0,72,0.00,,,0.00,Wunderground v.1.15,2013-01-16 01:30:00,
2013-01-15 20:35:00,24.7,17.3,30.20,West,271,0.0,0.0,73,0.00,,,0.00,Wunderground v.1.15,2013-01-16 01:35:00,
2013-01-15 20:40:00,25.0,18.2,30.20,West,271,0.0,0.0,75,0.00,,,0.00,Wunderground v.1.15,2013-01-16 01:40:00,
2013-01-15 20:45:00,25.1,18.6,30.19,West,271,0.0,0.0,76,0.00,,,0.00,Wunderground v.1.15,2013-01-16 01:45:00,
2013-01-15 20:55:00,25.1,18.9,30.19,West,271,0.0,0.0,77,0.00,,,0.00,Wunderground v.1.15,2013-01-16 01:55:00,
2013-01-15 21:00:00,24.4,18.2,30.17,West,271,0.0,0.0,77,0.00,,,0.00,Wunderground v.1.15,2013-01-16 02:00:00,
2013-01-15 21:05:00,23.6,17.1,30.17,West,271,0.0,0.0,76,0.00,,,0.00,Wunderground v.1.15,2013-01-16 02:05:00,
2013-01-15 21:15:00,22.7,16.6,30.16,West,271,0.0,0.0,77,0.00,,,0.00,Wunderground v.1.15,2013-01-16 02:15:00,
2013-01-15 21:20:00,22.4,16.3,30.16,West,271,0.0,0.0,77,0.00,,,0.00,Wunderground v.1.15,2013-01-16 02:20:00,
2013-01-15 21:25:00,22.2,16.1,30.16,West,271,0.0,0.0,77,0.00,,,0.00,Wunderground v.1.15,2013-01-16 02:25:00,
2013-01-15 21:30:00,21.9,15.8,30.15,West,271,0.0,0.0,77,0.00,,,0.00,Wunderground v.1.15,2013-01-16 02:30:00,
2013-01-15 21:35:00,21.8,16.0,30.15,West,271,0.0,0.0,78,0.00,,,0.00,Wunderground v.1.15,2013-01-16 02:35:00,
2013-01-15 21:45:00,21.3,15.5,30.15,West,271,0.0,0.0,78,0.00,,,0.00,Wunderground v.1.15,2013-01-16 02:45:00,
2013-01-15 21:50:00,21.1,15.3,30.15,West,271,0.0,0.0,78,0.00,,,0.00,Wunderground v.1.15,2013-01-16 02:50:00,
2013-01-15 21:55:00,21.0,15.2,30.15,West,271,0.0,0.0,78,0.00,,,0.00,Wunderground v.1.15,2013-01-16 02:55:00,
2013-01-15 22:05:00,20.6,15.1,30.14,West,271,0.0,0.0,79,0.00,,,0.00,Wunderground v.1.15,2013-01-16 03:05:00,
2013-01-15 22:15:00,20.6,15.1,30.13,West,271,0.0,0.0,79,0.00,,,0.00,Wunderground v.1.15,2013-01-16 03:15:00,
2013-01-15 22:20:00,20.5,15.3,30.13,West,271,0.0,0.0,80,0.00,,,0.00,Wunderground v.1.15,2013-01-16 03:20:00,
2013-01-15 22:25:00,20.5,15.3,30.13,West,271,0.0,0.0,80,0.00,,,0.00,Wunderground v.1.15,2013-01-16 03:25:00,
2013-01-15 22:30:00,20.5,15.3,30.13,West,271,0.0,0.0,80,0.00,,,0.00,Wunderground v.1.15,2013-01-16 03:30:00,
2013-01-15 22:40:00,20.6,15.7,30.13,West,271,0.0,0.0,81,0.00,,,0.00,Wunderground v.1.15,2013-01-16 03:40:00,
2013-01-15 22:45:00,20.6,15.4,30.12,West,271,0.0,0.0,80,0.00,,,0.00,Wunderground v.1.15,2013-01-16 03:45:00,
2013-01-15 22:50:00,20.6,15.4,30.12,West,271,0.0,0.0,80,0.00,,,0.00,Wunderground v.1.15,2013-01-16 03:50:00,
2013-01-15 22:55:00,20.6,15.4,30.12,West,271,0.0,0.0,80,0.00,,,0.00,Wunderground v.1.15,2013-01-16 03:55:00,
2013-01-15 23:05:00,20.5,15.3,30.12,West,271,0.0,0.0,80,0.00,,,0.00,Wunderground v.1.15,2013-01-16 04:05:00,
2013-01-15 23:15:00,20.2,15.3,30.11,West,271,0.0,0.0,81,0.00,,,0.00,Wunderground v.1.15,2013-01-16 04:15:00,
2013-01-15 23:25:00,20.0,15.1,30.11,West,271,0.0,0.0,81,0.00,,,0.00,Wunderground v.1.15,2013-01-16 04:25:00,
2013-01-15 23:30:00,20.0,15.1,30.11,West,271,0.0,0.0,81,0.00,,,0.00,Wunderground v.1.15,2013-01-16 04:30:00,
2013-01-15 23:35:00,20.3,15.7,30.11,West,271,0.0,0.0,82,0.00,,,0.00,Wunderground v.1.15,2013-01-16 04:35:00,
2013-01-15 23:45:00,20.8,15.9,30.10,West,271,0.0,0.0,81,0.00,,,0.00,Wunderground v.1.15,2013-01-16 04:45:00,
2013-01-15 23:50:00,20.8,15.6,30.10,West,271,0.0,0.0,80,0.00,,,0.00,Wunderground v.1.15,2013-01-16 04:50:00,
2013-01-15 23:55:00,20.8,15.6,30.10,West,270,0.0,0.0,80,0.00,,,0.00,Wunderground v.1.15,2013-01-16 04:55:00,